Wind_Speed
24 24 24 24 25 25 23 21 20 20 20 20 20 20 20 19 20 21 20 20 19 19 19 18 18 17 17 16 16 16 16 16 15 15 15 15 15 14 14 13 12 12 11 11 11 10 10 10 9
25 26 26 26 27 26 24 22 22 22 22 22 22 21 21 20 20 20 21 21 21 21 21 20 20 19 19 18 18 18 18 18 17 17 16 16 16 16 15 14 14 13 12 12 12 12 11 11 10
26 27 27 28 28 26 25 24 24 24 24 24 23 23 22 21 21 21 21 21 21 22 22 22 22 21 20 20 20 20 20 19 19 19 18 18 17 17 16 16 15 14 14 13 13 13 13 12 12
28 28 29 29 28 26 26 25 25 25 25 25 25 25 23 22 22 22 22 22 22 22 22 22 23 23 22 21 21 21 21 21 21 20 20 19 19 18 18 18 17 16 15 15 15 15 14 14 14
29 29 30 30 29 28 27 27 27 27 27 27 26 26 25 24 23 23 23 23 23 23 23 23 23 24 24 23 23 23 23 23 22 22 22 21 20 20 20 19 18 18 17 16 16 16 16 15 15
30 31 31 31 30 29 29 28 28 28 28 28 27 27 26 25 24 24 24 24 24 24 24 24 24 24 25 25 25 24 24 24 24 24 23 23 22 21 21 20 20 19 18 18 18 18 17 17 17
32 32 32 31 31 30 30 30 29 29 29 29 29 28 27 26 26 26 25 25 25 25 25 25 25 25 26 26 26 26 26 25 25 25 24 24 23 23 23 22 21 21 20 20 19 19 19 18 18
33 33 33 32 31 31 31 31 31 31 30 30 30 29 29 28 27 27 27 27 27 27 27 26 26 26 26 27 28 28 27 26 26 26 26 26 25 25 24 23 23 22 22 21 21 21 20 20 20
34 34 33 32 32 32 33 33 33 33 32 32 31 31 30 30 29 29 28 28 28 28 28 28 27 27 27 28 29 29 29 28 28 28 27 27 27 26 26 25 25 24 24 23 23 22 22 21 21
35 35 33 33 33 34 35 35 35 34 34 33 33 32 32 31 31 31 30 30 30 30 29 29 29 29 28 29 29 30 30 30 30 29 29 28 29 28 28 27 26 26 26 25 24 24 23 23 23
36 35 34 35 36 36 36 37 36 36 35 34 35 34 33 33 32 32 32 32 32 31 31 31 30 30 30 30 30 31 31 31 31 30 30 29 29 29 29 28 28 27 27 27 26 26 25 25 25
37 36 36 36 37 38 38 38 38 37 36 36 36 36 35 34 34 33 33 33 33 33 33 33 32 32 32 32 31 32 32 32 32 31 30 30 30 30 30 30 29 29 29 28 28 28 28 27 27
37 36 36 36 37 38 39 39 40 38 38 38 38 37 36 36 35 35 34 34 34 35 34 33 34 33 33 33 33 32 32 33 33 33 32 32 32 31 31 31 31 31 30 30 30 30 30 30 29
38 38 37 37 37 38 39 40 40 38 40 40 40 39 38 38 37 37 36 35 35 36 35 35 35 34 34 34 34 34 33 34 34 34 34 33 33 32 32 32 32 32 32 32 32 32 32 32 32
38 39 39 38 38 38 40 40 39 39 41 41 41 40 40 39 39 38 38 37 36 37 37 37 36 35 35 35 35 35 35 35 35 35 35 34 34 34 33 33 33 33 33 34 34 33 34 34 33
39 39 39 38 39 39 41 40 38 40 41 41 42 41 41 40 40 40 39 39 38 37 38 38 37 36 36 36 37 37 36 36 35 35 36 36 35 35 35 35 35 34 35 35 35 35 35 35 35
40 40 39 39 39 41 41 40 39 40 41 41 41 42 42 41 41 41 40 40 39 39 38 39 38 37 37 37 38 38 37 37 37 36 36 36 36 36 36 36 36 36 36 36 36 36 36 37 37
40 41 40 40 41 42 42 41 40 41 42 41 41 42 43 42 42 42 41 40 40 39 38 37 37 37 37 37 38 39 38 38 38 37 37 37 37 37 37 37 37 37 37 37 37 37 38 39 39
42 42 42 41 42 43 43 42 41 41 42 42 42 42 43 43 43 42 41 41 40 39 38 38 37 37 37 37 38 38 38 38 39 38 37 38 38 38 38 38 38 38 37 37 37 38 39 40 40
44 43 43 43 44 44 44 44 42 42 42 42 42 43 43 43 44 43 42 41 40 39 39 38 38 38 37 37 38 38 38 38 38 37 37 38 38 39 39 39 38 38 38 38 38 39 40 40 40
44 44 44 44 44 45 45 44 42 42 42 42 42 42 43 43 44 44 42 41 40 40 39 39 38 38 38 38 38 38 38 38 38 37 37 37 38 38 39 38 39 39 39 39 39 40 40 40 41
43 43 43 44 44 44 44 44 42 41 41 41 40 40 42 43 44 44 43 42 41 40 40 40 39 38 38 37 38 38 38 38 37 37 37 37 37 38 38 38 39 39 39 40 40 41 41 41 41
42 41 42 42 43 44 43 44 42 41 40 39 39 39 40 41 41 42 43 42 41 40 40 40 39 38 37 37 38 38 38 38 38 38 38 37 37 37 38 38 38 38 38 39 40 40 41 42 43
40 40 40 41 42 43 41 42 42 40 39 38 38 38 38 39 40 40 41 42 41 40 40 40 39 38 38 38 38 38 38 38 38 37 38 37 37 37 38 38 38 38 38 38 39 40 41 42 43
37 37 38 39 40 42 40 42 42 39 38 38 38 38 38 37 38 40 40 41 41 41 41 40 40 39 39 38 38 38 38 38 38 37 38 38 38 37 38 38 38 38 39 39 39 39 40 42 43
34 35 36 37 38 39 39 40 39 38 37 37 37 37 37 37 37 38 39 40 41 41 41 41 40 40 39 39 39 39 39 39 38 38 38 39 39 38 39 39 39 39 40 40 40 40 41 42 43
33 33 33 35 36 37 38 38 37 36 36 37 37 37 36 37 36 37 38 38 39 40 41 41 40 40 40 40 40 39 39 40 39 39 39 39 39 39 40 40 40 40 40 41 41 41 41 42 44
33 32 32 33 33 34 35 36 36 35 35 35 36 36 36 36 37 37 37 37 38 39 40 40 40 41 41 41 41 40 40 40 40 40 39 39 39 39 39 40 40 41 41 41 41 41 42 43 43
32 32 33 33 34 34 34 34 34 34 34 33 33 34 36 36 36 37 37 37 38 38 39 40 40 40 41 40 41 41 41 41 41 40 40 40 40 40 40 40 41 41 41 41 41 40 41 42 42
31 32 33 33 34 34 35 34 32 32 33 33 33 34 35 36 36 37 37 37 38 37 38 39 39 40 40 39 40 41 41 41 41 40 39 40 40 39 39 39 40 40 40 39 39 39 39 39 40
Wind_Direction
245 245 246 245 247 247 247 245 243 242 242 242 242 242 243 245 245 246 245 243 242 240 240 240 241 241 240 239 237 235 235 235 235 233 232 232 231 230 229 228 228 230 232 232 232 233 232 232 233
246 246 246 246 247 248 248 246 244 243 243 243 243 243 243 245 246 247 246 244 242 241 241 241 242 243 243 242 240 238 237 237 237 236 234 234 234 233 232 232 233 235 236 235 235 235 236 237 238
249 248 247 247 248 250 250 248 246 245 244 244 243 244 245 245 246 246 246 246 244 242 242 242 242 243 244 244 242 241 239 238 238 238 237 236 237 236 236 236 236 237 238 238 239 238 239 242 242
250 250 249 249 249 250 251 249 247 245 244 244 245 246 246 246 246 245 245 245 245 244 244 244 244 244 244 244 243 242 240 240 240 240 239 239 239 240 239 238 238 239 240 241 242 242 242 243 243
251 250 250 250 250 250 251 250 248 246 245 244 245 245 246 246 246 246 245 245 245 246 246 246 246 246 245 245 245 243 242 242 242 242 240 240 240 240 240 240 240 240 241 242 244 245 245 245 245
252 251 252 251 251 250 250 249 247 247 245 245 244 244 245 246 246 246 247 247 247 248 247 248 248 248 247 246 245 245 245 244 243 243 242 241 241 241 241 241 242 242 242 244 245 246 247 247 247
254 253 253 252 251 250 249 248 247 247 246 245 244 243 244 246 246 246 247 247 247 248 248 248 249 249 248 247 245 245 245 245 244 244 244 242 241 241 242 243 243 244 245 245 245 246 247 248 248
254 254 253 252 251 250 249 248 247 246 246 245 244 244 244 245 246 247 247 248 248 249 249 249 250 250 249 247 246 245 244 245 245 245 244 244 243 243 243 244 244 245 246 247 246 247 248 249 249
254 254 253 252 251 249 248 248 247 246 246 245 245 245 245 245 246 247 248 248 249 249 249 249 250 249 250 247 246 245 244 245 245 245 246 246 245 244 244 244 245 245 246 247 247 248 250 250 250
255 254 254 252 250 249 248 248 247 246 246 246 246 246 246 247 247 247 248 249 249 249 248 248 249 249 250 248 247 246 245 245 246 246 246 246 246 246 246 246 246 246 246 247 247 248 250 250 251
256 256 254 252 250 249 249 248 247 247 246 246 247 247 247 247 248 249 248 249 249 249 248 247 248 249 250 249 248 247 246 246 246 246 246 247 248 248 247 247 247 246 247 248 248 249 250 252 253
257 256 255 253 251 250 249 248 247 247 246 247 247 247 247 247 249 249 249 249 249 249 247 247 248 248 249 249 248 247 246 247 246 246 245 247 249 249 249 248 248 248 248 249 249 251 251 253 254
257 256 256 254 253 252 250 249 248 246 246 247 247 247 247 247 248 249 250 250 250 249 248 247 248 248 248 249 248 247 247 247 246 246 246 246 248 250 250 249 249 248 249 249 250 252 252 253 254
257 256 255 255 254 253 251 249 249 247 247 248 247 247 247 247 248 249 250 251 250 249 248 248 248 248 249 249 247 247 246 247 248 247 247 247 248 249 250 250 250 249 250 251 252 253 253 254 255
257 256 254 254 254 254 253 250 249 248 248 248 247 247 247 247 248 249 250 251 250 249 249 248 250 249 249 248 246 246 247 247 249 247 246 247 247 249 250 251 251 251 251 252 253 254 254 254 256
256 256 255 254 254 254 253 252 249 248 249 248 247 247 246 247 248 249 250 251 251 250 248 248 249 249 248 247 247 247 248 247 247 247 246 247 247 249 250 252 251 252 252 253 254 254 255 255 257
256 257 256 255 254 253 253 253 249 249 249 249 248 247 247 247 248 249 250 251 251 250 248 248 248 248 246 247 247 247 247 246 245 246 246 247 247 248 250 252 253 252 253 254 254 254 255 256 257
258 257 256 256 255 254 254 253 251 249 249 249 249 248 248 248 248 249 250 251 250 249 248 248 247 246 246 246 246 246 247 245 244 246 247 247 248 249 249 251 253 252 253 255 255 255 256 257 258
258 258 257 256 256 255 255 254 252 250 249 249 249 249 249 248 248 249 250 250 250 249 248 247 246 244 245 246 247 247 247 247 246 247 248 248 249 249 251 253 254 253 254 255 256 256 257 258 259
258 258 258 257 256 256 255 254 253 251 250 250 250 250 250 249 248 248 249 249 249 248 246 246 246 245 245 246 247 248 248 248 246 248 248 248 249 251 252 253 255 255 255 255 256 257 258 258 259
257 257 257 257 257 256 255 254 253 252 251 250 250 250 249 249 248 248 247 246 247 247 246 246 246 245 246 246 247 248 247 248 247 248 248 248 249 251 253 255 256 257 257 257 258 258 258 258 259
256 256 256 256 256 256 255 255 252 253 252 250 250 249 248 248 248 246 245 244 245 245 245 245 246 245 245 246 247 246 246 248 248 249 249 249 250 252 254 256 257 259 260 259 259 259 259 259 259
256 255 255 255 255 255 254 255 253 252 251 250 249 248 247 247 247 246 244 243 242 243 243 244 245 244 244 246 246 247 247 248 248 249 249 249 251 253 254 256 258 260 261 261 261 261 261 260 260
254 253 253 253 253 253 252 254 254 252 252 251 250 249 248 247 246 245 243 241 241 241 241 242 244 244 244 245 246 247 247 248 248 249 250 250 251 253 255 257 259 260 261 262 262 262 261 261 261
252 252 253 254 253 253 251 252 252 251 251 251 250 249 248 246 245 244 242 241 240 240 240 241 243 244 244 245 246 246 246 246 247 249 250 251 252 253 255 257 259 260 261 262 262 262 263 262 261
250 250 251 253 254 254 252 252 251 251 251 251 249 248 248 246 244 244 242 241 241 240 240 240 242 242 243 244 245 245 246 247 248 250 251 252 253 254 256 258 259 260 261 262 262 263 264 263 262
249 249 250 253 255 255 254 253 253 252 251 251 249 246 247 245 244 243 243 242 242 241 241 241 242 242 242 243 245 245 246 247 249 251 252 253 253 255 256 258 260 261 262 262 262 263 264 263 262
249 249 249 250 254 256 256 254 252 252 253 252 250 247 245 243 243 243 242 241 241 241 240 240 242 242 242 243 244 244 245 247 249 251 251 252 254 255 256 258 260 261 262 263 263 264 264 264 263
248 248 249 251 252 254 256 254 253 254 254 253 250 249 247 244 243 244 243 242 242 241 240 240 241 242 242 244 244 244 245 247 249 250 251 252 254 256 258 260 261 262 263 263 264 266 265 264 264
249 249 250 250 251 252 255 256 252 253 254 254 250 249 248 245 243 242 242 244 243 241 240 241 242 242 243 245 246 246 246 247 249 250 251 253 254 256 258 260 262 263 263 263 265 266 266 265 265
Height
5824 5825 5826 5827 5828 5829 5830 5832 5833 5834 5834 5834 5835 5836 5838 5839 5840 5843 5843 5842 5843 5844 5845 5846 5847 5848 5849 5850 5851 5852 5853 5854 5855 5856 5857 5858 5859 5859 5860 5861 5861 5862 5862 5863 5863 5864 5864 5865 5866
5819 5821 5822 5822 5823 5824 5826 5827 5828 5829 5829 5830 5831 5832 5833 5834 5835 5836 5837 5838 5839 5840 5841 5842 5843 5845 5846 5847 5848 5849 5850 5851 5852 5853 5854 5855 5856 5857 5858 5859 5859 5860 5861 5861 5861 5862 5863 5863 5864
5814 5815 5816 5817 5818 5820 5821 5822 5823 5823 5824 5825 5826 5827 5828 5830 5831 5832 5833 5834 5835 5836 5837 5838 5840 5841 5842 5843 5845 5846 5847 5848 5849 5850 5851 5853 5854 5854 5855 5856 5857 5858 5858 5859 5859 5860 5861 5861 5862
5809 5810 5811 5812 5813 5815 5815 5817 5817 5818 5819 5820 5821 5822 5824 5825 5826 5827 5828 5829 5831 5832 5833 5834 5835 5837 5838 5839 5841 5842 5843 5845 5846 5847 5848 5849 5850 5852 5852 5853 5854 5855 5856 5856 5857 5857 5858 5859 5859
5802 5803 5804 5805 5807 5808 5809 5810 5811 5812 5813 5814 5816 5817 5819 5820 5821 5822 5823 5825 5826 5827 5829 5830 5831 5832 5834 5835 5837 5838 5839 5841 5842 5843 5844 5846 5847 5848 5849 5850 5851 5852 5853 5853 5854 5855 5856 5856 5857
5796 5797 5798 5799 5801 5802 5802 5803 5805 5806 5807 5808 5810 5811 5813 5814 5815 5817 5818 5820 5821 5822 5824 5825 5826 5827 5829 5830 5832 5833 5835 5836 5838 5839 5840 5842 5843 5844 5845 5846 5847 5848 5849 5850 5851 5852 5853 5853 5854
5789 5790 5790 5792 5794 5795 5796 5797 5798 5799 5800 5802 5803 5805 5807 5809 5810 5811 5813 5814 5816 5817 5819 5820 5821 5822 5824 5825 5827 5828 5830 5831 5833 5834 5836 5837 5839 5840 5841 5842 5844 5845 5846 5847 5848 5848 5849 5850 5850
5781 5783 5783 5785 5787 5788 5789 5789 5791 5792 5794 5795 5797 5799 5801 5803 5804 5806 5807 5808 5810 5812 5813 5814 5816 5817 5818 5819 5821 5823 5824 5826 5828 5829 5831 5832 5834 5835 5837 5838 5839 5840 5841 5843 5844 5844 5845 5846 5846
5773 5775 5776 5779 5780 5781 5781 5782 5783 5785 5787 5789 5790 5792 5794 5796 5798 5799 5801 5802 5804 5806 5807 5808 5810 5811 5812 5814 5815 5817 5818 5820 5822 5824 5825 5827 5828 5830 5832 5833 5834 5836 5837 5838 5839 5840 5841 5842 5842
5765 5767 5770 5771 5771 5772 5772 5774 5775 5778 5780 5782 5783 5785 5787 5789 5791 5793 5794 5796 5797 5799 5800 5802 5804 5805 5806 5807 5809 5811 5812 5814 5816 5818 5819 5821 5823 5824 5826 5828 5829 5830 5832 5833 5834 5835 5836 5837 5838
5757 5759 5761 5761 5762 5763 5764 5765 5767 5770 5773 5774 5775 5777 5779 5782 5783 5785 5787 5788 5790 5792 5793 5795 5797 5798 5800 5801 5803 5804 5806 5808 5810 5811 5813 5815 5817 5818 5820 5822 5823 5825 5826 5828 5829 5830 5831 5832 5833
5748 5750 5751 5752 5752 5753 5755 5756 5759 5762 5765 5766 5767 5769 5772 5774 5776 5778 5779 5781 5783 5784 5786 5788 5790 5791 5793 5794 5796 5798 5799 5801 5803 5805 5807 5809 5811 5812 5814 5816 5817 5819 5820 5822 5823 5824 5825 5826 5827
5739 5741 5741 5742 5743 5744 5745 5747 5750 5753 5755 5756 5758 5761 5763 5765 5768 5769 5771 5773 5775 5776 5778 5780 5782 5784 5785 5787 5789 5790 5793 5794 5796 5798 5800 5802 5804 5806 5808 5809 5811 5812 5814 5815 5816 5818 5819 5820 5821
5730 5730 5732 5733 5733 5735 5736 5738 5740 5745 5745 5747 5749 5752 5754 5757 5759 5761 5763 5764 5766 5768 5770 5772 5774 5776 5778 5779 5781 5783 5785 5787 5789 5791 5793 5795 5797 5799 5801 5802 5804 5805 5807 5808 5809 5811 5812 5813 5814
5719 5720 5722 5723 5724 5725 5726 5728 5733 5735 5735 5737 5740 5743 5745 5748 5750 5752 5754 5756 5758 5759 5761 5763 5765 5767 5769 5771 5773 5775 5777 5779 5781 5783 5785 5787 5789 5791 5793 5795 5796 5798 5799 5800 5801 5803 5804 5805 5807
5708 5710 5712 5714 5714 5715 5717 5720 5724 5723 5725 5727 5730 5733 5736 5738 5740 5743 5745 5747 5749 5751 5752 5754 5756 5758 5760 5762 5764 5766 5768 5770 5773 5774 5776 5779 5781 5783 5785 5787 5788 5790 5791 5792 5793 5795 5796 5797 5798
5698 5700 5702 5704 5704 5705 5706 5710 5713 5713 5714 5717 5720 5722 5725 5728 5731 5733 5735 5737 5739 5741 5743 5745 5747 5749 5751 5753 5755 5757 5758 5761 5763 5766 5768 5770 5772 5774 5776 5778 5780 5781 5782 5784 5785 5786 5787 5789 5790
5688 5690 5691 5693 5693 5694 5695 5699 5702 5703 5705 5707 5709 5712 5715 5718 5721 5723 5725 5727 5729 5731 5733 5735 5737 5739 5741 5744 5746 5748 5749 5751 5754 5756 5759 5761 5763 5765 5767 5769 5771 5772 5774 5775 5776 5777 5778 5779 5780
5676 5677 5679 5681 5682 5683 5684 5687 5690 5692 5694 5697 5699 5701 5704 5707 5710 5712 5714 5716 5718 5721 5723 5726 5728 5730 5732 5734 5736 5738 5740 5742 5745 5747 5750 5752 5754 5756 5758 5760 5761 5763 5764 5765 5766 5767 5768 5769 5770
5663 5665 5667 5669 5670 5671 5673 5675 5678 5681 5684 5686 5688 5691 5693 5696 5698 5701 5703 5705 5708 5711 5713 5716 5718 5721 5723 5725 5728 5730 5732 5733 5736 5738 5741 5743 5745 5747 5749 5751 5752 5753 5755 5756 5756 5757 5758 5759 5760
5651 5653 5656 5656 5657 5659 5661 5664 5667 5670 5672 5674 5677 5679 5681 5684 5686 5689 5692 5695 5698 5700 5703 5706 5708 5711 5713 5716 5718 5720 5722 5724 5727 5729 5732 5734 5736 5737 5739 5741 5742 5744 5745 5745 5746 5747 5748 5749 5750
5638 5642 5643 5644 5645 5647 5650 5651 5657 5658 5660 5663 5665 5667 5669 5672 5674 5677 5681 5684 5687 5690 5693 5696 5698 5701 5703 5706 5708 5711 5714 5716 5718 5720 5723 5724 5726 5728 5730 5731 5732 5734 5734 5735 5736 5737 5738 5739 5740
5627 5629 5631 5632 5633 5635 5638 5639 5645 5647 5649 5652 5654 5656 5658 5661 5663 5666 5670 5673 5677 5680 5683 5686 5688 5691 5694 5697 5700 5702 5705 5707 5709 5711 5713 5715 5717 5719 5720 5722 5723 5724 5724 5725 5726 5726 5727 5728 5729
5615 5617 5619 5620 5621 5623 5628 5629 5633 5636 5639 5641 5644 5646 5648 5650 5653 5656 5659 5663 5666 5669 5673 5676 5679 5682 5685 5688 5690 5693 5695 5698 5700 5702 5704 5706 5708 5710 5711 5712 5713 5714 5715 5715 5716 5716 5717 5717 5718
5604 5606 5608 5608 5609 5613 5617 5618 5622 5626 5628 5630 5632 5635 5637 5640 5643 5646 5649 5652 5656 5659 5663 5666 5669 5672 5675 5678 5681 5684 5686 5689 5691 5693 5695 5697 5699 5701 5702 5703 5704 5705 5705 5705 5706 5706 5707 5707 5708
5594 5596 5599 5600 5601 5604 5606 5607 5612 5615 5617 5619 5622 5624 5627 5630 5633 5636 5639 5643 5646 5649 5653 5656 5659 5663 5665 5668 5671 5674 5677 5679 5682 5684 5686 5688 5690 5691 5693 5694 5694 5695 5695 5696 5696 5697 5697 5697 5698
5584 5586 5590 5591 5592 5594 5595 5598 5603 5604 5607 5610 5612 5614 5617 5620 5622 5626 5630 5633 5636 5639 5643 5646 5649 5653 5656 5659 5662 5664 5667 5670 5672 5675 5676 5678 5680 5682 5683 5684 5685 5685 5685 5686 5686 5686 5686 5687 5687
5575 5578 5580 5581 5583 5584 5586 5589 5593 5595 5597 5600 5602 5605 5607 5610 5613 5616 5620 5623 5626 5629 5633 5636 5640 5643 5646 5649 5652 5655 5658 5660 5663 5664 5667 5669 5670 5672 5673 5674 5675 5675 5675 5675 5676 5676 5676 5676 5677
5567 5569 5570 5573 5575 5577 5578 5582 5584 5586 5588 5590 5593 5595 5598 5601 5604 5607 5610 5613 5617 5620 5623 5627 5630 5633 5636 5640 5642 5645 5648 5650 5652 5655 5657 5659 5660 5662 5663 5664 5664 5665 5665 5665 5665 5666 5666 5666 5666
5557 5560 5562 5565 5566 5567 5569 5574 5575 5577 5578 5581 5583 5585 5588 5591 5594 5598 5601 5604 5607 5610 5614 5617 5620 5623 5627 5630 5633 5635 5638 5640 5643 5645 5647 5649 5650 5652 5653 5654 5654 5654 5655 5655 5655 5656 5655 5656 5656